Location: Boda
(47.1872°N, 9.5454°E)
Time: 09:55:49
(UTC+00:00)

Cosmos 1758 - Pass Details

Date: 14 May 2021
Orbit: 538 x 562 km, 82.5° (Epoch: 16 June)

Event Time Altitude Azimuth Distance (km) Brightness Sun altitude
Rises 00:35:51 0° 351° (N) 2,765 7.9 -21.9°
Reaches altitude 10° 00:38:03 10° 352° (N) 1,862 6.9 -21.8°
Maximum altitude 00:42:09 85° 78° (ENE) 568 3.3 -21.5°
Enters shadow 00:42:40 67° 158° (SSE) 610 3.3 -21.5°
